K9SCH Weather Reports


Display with metric or nautical units.
time (UTC)temp
F
wind
direction
speed
MPH
gust
MPH
rain 1hr
in
rain 24hr
in
rain mn
in
humidity
%
barometer
mb
20260505172516 67 248 6.0 10.0 0.00 0.04 0.04 60 1012.6
20260505171516 67 248 6.0 10.0 0.00 0.04 0.04 61 1012.5
20260505170516 67 248 6.0 9.0 0.00 0.04 0.04 61 1012.5
20260505165536 67 248 7.0 13.0 0.00 0.04 0.04 63 1012.5
20260505164519 66 248 10.0 16.0 0.00 0.04 0.04 65 1012.5
20260505163517 65 248 6.0 11.0 0.00 0.04 0.04 72 1012.4
20260505162517 65 225 6.0 12.0 0.00 0.04 0.04 74 1012.4
20260505161517 64 248 8.0 12.0 0.00 0.04 0.04 78 1012.3
20260505160536 64 248 6.0 10.0 0.00 0.04 0.04 83 1012.2
20260505152516 61 225 3.0 8.0 0.00 0.04 0.04 95 1011.9
20260505151536 61 248 2.0 6.0 0.00 0.04 0.04 95 1011.9
20260505150515 61 135 3.0 7.0 0.00 0.04 0.04 95 1011.9
20260505140519 59 135 2.0 5.0 0.00 0.04 0.04 95 1011.7
20260505124516 0 0.0 0.0 0.00 0.04 0.04
20260505124018 0 0.0 0.0 0.00 0.04 0.04
20260505123643 0 0.0 0.0 0.00 0.04 0.04
20260505123017 0 0.0 0.0 0.00 0.04 0.04
20260505122016 0 0.0 0.0 0.00 0.04 0.04
20260505121509 0 0.0 0.0 0.00 0.04 0.04
20260505121118 0 0.0 0.0 0.00 0.04 0.04
20260505120536 0 0.0 0.0 0.00 0.04 0.04
20260505115515 0 0.0 0.0 0.00 0.04 0.04
20260505115008 0 0.0 0.0 0.00 0.04 0.04
20260505114618 0 0.0 0.0 0.00 0.04 0.04
20260505114015 0 0.0 0.0 0.00 0.04 0.04
20260505113036 0 0.0 0.0 0.00 0.04 0.04
20260505112515 0 0.0 0.0 0.00 0.04 0.04
20260505112125 0 0.0 0.0 0.00 0.04 0.04
20260505111516 0 0.0 0.0 0.00 0.04 0.04
20260505110515 0 0.0 0.0 0.00 0.04 0.04
20260505101515 0 0.0 0.0 0.03 0.04 0.04
20260505101025 59 0.0 0.0 0.03 0.04 0.04 94 1012.0
20260505100518 59 277 1.0 0.0 0.03 0.04 0.04 94 1012.0
20260505100114 59 270 1.0 2.0 0.03 0.04 0.04 94 1011.9
20260505095019 59 0.0 1.0 0.03 0.04 0.04 94 1011.9
20260505094016 59 0.0 1.0 0.02 0.03 0.03 94 1011.9
20260505093016 59 0.0 2.0 0.01 0.02 0.02 94 1012.1
20260505092016 59 0.0 1.0 0.01 0.01 0.01 94 1012.0
20260505091037 59 248 2.0 3.0 0.01 0.01 0.01 94 1012.2
20260505090016 59 248 2.0 5.0 0.01 0.01 0.01 94 1012.2
20260505085018 59 225 2.0 4.0 0.01 0.01 0.01 94 1012.4
20260505084018 58 203 1.0 3.0 0.01 0.01 0.01 93 1012.6
20260505083016 59 225 2.0 5.0 0.01 0.01 0.01 93 1012.6
20260505082036 58 180 2.0 6.0 0.00 0.00 0.00 93 1012.6
20260505081016 58 203 3.0 6.0 0.00 0.00 0.00 93 1012.8
20260505080016 58 0.0 2.0 0.00 0.00 0.00 92 1012.8
20260505075016 58 203 2.0 5.0 0.00 0.00 0.00 91 1012.7
20260505074016 60 135 6.0 12.0 0.00 0.00 0.00 87 1012.3
20260505073037 62 135 6.0 11.0 0.00 0.00 0.00 75 1012.7
20260505072016 62 135 5.0 11.0 0.00 0.00 0.00 72 1012.6
20260505071016 62 135 5.0 13.0 0.00 0.00 0.00 70 1012.7
20260505070017 63 158 6.0 13.0 0.00 0.00 0.00 69 1012.7
20260505065016 63 158 7.0 13.0 0.00 0.00 0.00 68 1012.6
20260505064040 63 135 6.0 10.0 0.00 0.00 0.00 66 1012.7
20260505063016 64 135 5.0 10.0 0.00 0.00 0.00 64 1012.8
20260505062016 64 158 6.0 13.0 0.00 0.00 0.00 62 1013.0
20260505061016 64 180 5.0 12.0 0.00 0.00 0.00 60 1013.1
20260505060016 65 158 5.0 11.0 0.00 0.00 0.00 58 1013.2
20260505055036 65 158 5.0 9.0 0.00 0.00 0.00 54 1013.1
20260505054015 66 158 6.0 12.0 0.00 0.00 0.00 54 1013.1
20260505053016 66 158 7.0 14.0 0.00 0.00 0.00 52 1013.0
20260505052016 66 158 7.0 14.0 0.00 0.00 0.00 52 1012.9
20260505051016 66 158 5.0 13.0 0.00 0.00 0.00 53 1012.9
20260505050536 66 158 6.0 13.0 0.00 0.00 0.00 53 1012.9
20260505041536 66 180 5.0 13.0 0.00 0.00 0.00 49 1012.6
20260505040515 66 158 6.0 13.0 0.00 0.00 0.00 49 1012.5
20260505035515 66 158 8.0 16.0 0.00 0.00 0.00 48 1012.2
20260505034518 67 158 7.0 14.0 0.00 0.00 0.00 48 1012.1
20260505033515 67 158 7.0 13.0 0.00 0.00 0.00 47 1011.8
20260505032536 67 158 6.0 12.0 0.00 0.00 0.00 47 1011.9
20260505031516 68 158 7.0 15.0 0.00 0.00 0.00 45 1012.2
20260505030515 68 158 10.0 17.0 0.00 0.00 0.00 45 1012.2
20260505025516 68 180 9.0 17.0 0.00 0.00 0.00 44 1012.3
20260505024515 69 158 8.0 16.0 0.00 0.00 0.00 44 1011.9
20260505023536 69 158 10.0 17.0 0.00 0.00 0.00 43 1011.7
20260505022515 69 158 7.0 14.0 0.00 0.00 0.00 42 1011.5
20260505021518 70 135 10.0 20.0 0.00 0.00 0.00 39 1011.5
20260505020517 71 158 5.0 13.0 0.00 0.00 0.00 37 1011.4
20260505015515 72 135 6.0 12.0 0.00 0.00 0.00 38 1011.4
20260505014536 73 180 8.0 14.0 0.00 0.00 0.00 33 1011.2
20260505013515 73 158 6.0 13.0 0.00 0.00 0.00 33 1011.3
20260505012516 73 203 8.0 13.0 0.00 0.00 0.00 33 1011.4
20260505011517 74 203 10.0 19.0 0.00 0.00 0.00 32 1011.2
20260505010518 74 203 11.0 21.0 0.00 0.00 0.00 33 1011.2
20260505005536 74 203 9.0 17.0 0.00 0.00 0.00 33 1011.1
20260505004517 75 180 8.0 14.0 0.00 0.00 0.00 31 1011.1
20260505003515 75 180 10.0 17.0 0.00 0.00 0.00 30 1011.1
20260505002516 76 180 8.0 13.0 0.00 0.00 0.00 29 1011.0
20260505001515 76 180 9.0 17.0 0.00 0.00 0.00 29 1011.0
20260505000536 76 180 10.0 17.0 0.00 0.00 0.00 28 1011.0
20260504235515 77 203 10.0 23.0 0.00 0.00 0.00 26 1011.1
20260504234515 77 180 10.0 19.0 0.00 0.00 0.00 25 1011.0
20260504233515 78 158 9.0 17.0 0.00 0.00 0.00 24 1010.8
20260504232515 78 180 8.0 15.0 0.00 0.00 0.00 22 1010.6
20260504231535 78 203 7.0 14.0 0.00 0.00 0.00 22 1010.5
20260504230515 78 203 10.0 15.0 0.00 0.00 0.00 23 1010.8
20260504225515 78 158 9.0 18.0 0.00 0.00 0.00 24 1011.0
20260504224516 78 203 10.0 16.0 0.00 0.00 0.00 22 1011.4
20260504223517 77 225 5.0 10.0 0.00 0.00 0.00 27 1011.4
20260504222536 77 248 5.0 12.0 0.00 0.00 0.00 27 1011.3
20260504221515 77 248 10.0 15.0 0.00 0.00 0.00 27 1011.8
20260504220516 77 248 11.0 17.0 0.00 0.00 0.00 27 1012.1
20260504215519 77 270 12.0 17.0 0.00 0.00 0.00 26 1012.3
20260504214515 77 270 9.0 15.0 0.00 0.00 0.00 26 1012.2
20260504213535 77 270 10.0 16.0 0.00 0.00 0.00 26 1012.2
20260504212515 77 270 12.0 18.0 0.00 0.00 0.00 25 1012.2
20260504211516 78 270 12.0 18.0 0.00 0.00 0.00 26 1012.1
20260504210518 78 248 12.0 18.0 0.00 0.00 0.00 25 1012.2
20260504205515 78 248 12.0 17.0 0.00 0.00 0.00 24 1012.4
20260504204535 78 248 10.0 16.0 0.00 0.00 0.00 25 1012.3
20260504203518 78 270 9.0 14.0 0.00 0.00 0.00 26 1011.9
20260504202516 78 270 11.0 16.0 0.00 0.00 0.00 27 1012.0
20260504201515 78 270 11.0 18.0 0.00 0.00 0.00 27 1012.0
20260504200515 78 270 13.0 19.0 0.00 0.00 0.00 27 1012.1
20260504195536 78 248 13.0 21.0 0.00 0.00 0.00 26 1012.3
20260504194515 79 248 13.0 22.0 0.00 0.00 0.00 25 1012.4
20260504193515 78 248 12.0 19.0 0.00 0.00 0.00 26 1012.0
20260504192517 79 248 12.0 17.0 0.00 0.00 0.00 25 1012.0
20260504191516 79 270 9.0 14.0 0.00 0.00 0.00 25 1012.0
20260504190539 79 270 10.0 16.0 0.00 0.00 0.00 26 1012.0
20260504185520 79 248 7.0 15.0 0.00 0.00 0.00 26 1011.8
20260504184519 79 248 9.0 15.0 0.00 0.00 0.00 27 1011.8
20260504183517 78 248 7.0 14.0 0.00 0.00 0.00 28 1011.7
20260504182517 77 248 9.0 14.0 0.00 0.00 0.00 28 1011.8
20260504181538 78 270 9.0 15.0 0.00 0.00 0.00 30 1012.1
20260504180518 78 248 9.0 16.0 0.00 0.00 0.00 30 1012.4
20260504175517 78 248 9.0 14.0 0.00 0.00 0.00 31 1012.2
20260504174518 78 248 8.0 13.0 0.00 0.00 0.00 30 1012.3
20260504173520 77 248 9.0 15.0 0.00 0.00 0.00 32 1012.3